User: anonymous   Login
Location: Unspecified
(0.0000°N, 0.0000°E)
Time: 06:54:23
(UTC+00:00)
Language:

STARLINK-36135 - Orbit

View from above orbital plane
View from above orbital plane
View from above satellite
View from above satellite

Ground track
Ground track

The orbit is defined by the following mean orbital elements,

1 66986U          26145.49728640 +.00000000 +00000-0 +67416-3 0 00003
2 66986  43.0016 309.7213 0000972 277.7127  82.3614 15.27594779    07
Epoch (UTC): 25 May 2026 11:56:05
Eccentricity: 0.0000972
inclination: 43.0016°
perigee height: 482 km
apogee height: 484 km
right ascension of ascending node: 309.7213°
argument of perigee: 277.7127°
revolutions per day: 15.27594779
mean anomaly at epoch: 82.3614°

The dashed part of the orbit path shows where the satellite is in the earth's shadow,  

DLR